This is the latest recevied weather packets stored in our database for station/object DK4MDA-13. If no packets are shown the sender has not sent any weather packets the latest 10 day(s).
| Time | Temp. | Humidity | Pressure | Rain* | Wind** | Luminosity | Snow |
|---|---|---|---|---|---|---|---|
| 1777390340 | 17.78° C | 30% | 1024.3 hPa | 0 mm | - | - | - |
| 1777390041 | 18.33° C | 28% | 1024.4 hPa | 0 mm | - | - | - |
| 1777389741 | 18.33° C | 29% | 1024.5 hPa | 0 mm | - | - | - |
| 1777389441 | 18.33° C | 29% | 1024.4 hPa | 0 mm | - | - | - |
| 1777389141 | 18.33° C | 32% | 1024.6 hPa | 0 mm | - | - | - |
| 1777388841 | 18.33° C | 29% | 1024.6 hPa | 0 mm | - | - | - |
| 1777388540 | 18.89° C | 30% | 1024.6 hPa | 0 mm | - | - | - |
| 1777388240 | 18.33° C | 29% | 1024.6 hPa | 0 mm | - | - | - |
| 1777387941 | 18.89° C | 29% | 1024.6 hPa | 0 mm | - | - | - |
| 1777387641 | 18.89° C | 27% | 1024.7 hPa | 0 mm | - | - | - |
| 1777387341 | 18.89° C | 27% | 1024.7 hPa | 0 mm | - | - | - |
| 1777387040 | 18.89° C | 28% | 1024.8 hPa | 0 mm | - | - | - |
| 1777386740 | 18.33° C | 30% | 1024.8 hPa | 0 mm | - | - | - |
| 1777386441 | 17.78° C | 29% | 1024.8 hPa | 0 mm | - | - | - |
| 1777386141 | 17.22° C | 30% | 1024.8 hPa | 0 mm | - | - | - |
| 1777385840 | 17.78° C | 29% | 1025 hPa | 0 mm | - | - | - |
| 1777385541 | 18.33° C | 29% | 1024.8 hPa | 0 mm | - | - | - |
| 1777385240 | 17.78° C | 29% | 1024.9 hPa | 0 mm | - | - | - |
| 1777384941 | 17.78° C | 29% | 1025 hPa | 0 mm | - | - | - |
| 1777384641 | 18.33° C | 28% | 1025 hPa | 0 mm | - | - | - |
| 1777384340 | 18.33° C | 26% | 1025.1 hPa | 0 mm | - | - | - |
| 1777384041 | 18.33° C | 27% | 1025.2 hPa | 0 mm | - | - | - |
| 1777383741 | 17.78° C | 29% | 1025.1 hPa | 0 mm | - | - | - |
| 1777383441 | 17.22° C | 28% | 1025.2 hPa | 0 mm | - | - | - |
| 1777383141 | 16.67° C | 30% | 1025.2 hPa | 0 mm | - | - | - |
* Rain latest hour (hover to see other rain measurements)
** Current wind speed in m/s (hover to see current wind gust speed)